Location: ????
(33.1659°N, 35.6604°E)
Time: 12:30:39
(UTC+00:00)

Cosmos 2227 Rocket - Pass Details

Date: 20 September 2019
Orbit: 837 x 847 km, 71.0° (Epoch: 18 October)

Event Time Altitude Azimuth Distance (km) Brightness Sun altitude
Rises 16:45:55 0° 189° (S) 3,374 5.3 -15.0°
Reaches altitude 10° 16:48:22 10° 185° (S) 2,445 4.5 -15.6°
Maximum altitude 16:53:53 59° 107° (ESE) 962 2.2 -16.7°
Drops below altitude 10° 16:59:26 10° 29° (NNE) 2,465 4.5 -17.8°
Sets 17:01:54 0° 26° (NNE) 3,405 5.2 -18.3°
